User: anonymous   Login
Location: Keeble Observatory
(37.7625°N, 77.4755°W)
Time: 17:21:24
(UTC-05:00)
Language:

Cosmos 1484 Rocket - Orbit

View from above orbital plane
View from above orbital plane
View from above satellite
View from above satellite

Ground track
Ground track

The orbit data is extracted from the following two-line orbital elements,

1 14208U 83075B   18054.50118553  .00000337  00000-0  23880-4 0  9992
2 14208  97.3427  59.7718 0038779 346.3842  13.6338 15.10626511885441
Epoch (UTC): 23 February 2018 12:01:42
Eccentricity: 0.0038779
inclination: 97.3427°
perigee height: 507 km
apogee height: 561 km
right ascension of ascending node: 59.7718°
argument of perigee: 346.3842°
revolutions per day: 15.10626511
mean anomaly at epoch: 13.6338°
orbit number at epoch: 88544

The dashed part of the orbit path shows where the satellite is in the earth's shadow,  

DLR